• In Uzbekistan
  • List of Countries
  • For 7 days
  • Water Temperature
  • Satellite Maps
  • Weather Map
  • Weather Widgets
  • user-avatar
    Login

    Hourly Weather Ilebo

    Today, 23 January, Tuesday

    Time Temperature Precipitation Wind Pressure Humidity
    00:00 +28°C° 0 mm 1 mps 721 mmHg 19%
    01:00 +28°C° 0 mm 1 mps 721 mmHg 20%
    02:00 +27°C° 0 mm 1 mps 721 mmHg 20%
    03:00 +27°C° 0 mm 1 mps 721 mmHg 21%
    04:00 +26°C° 0 mm 2 mps 721 mmHg 21%
    05:00 +27°C° 0 mm 2 mps 721 mmHg 21%
    06:00 +27°C° 0 mm 2 mps 721 mmHg 20%
    07:00 +28°C° 0 mm 2 mps 722 mmHg 20%
    08:00 +31°C° 0 mm 2 mps 722 mmHg 17%
    09:00 +35°C° 0 mm 3 mps 722 mmHg 13%
    10:00 +40°C° 0 mm 4 mps 722 mmHg 10%
    11:00 +40°C° 0 mm 3 mps 721 mmHg 9%
    12:00 +42°C° 0 mm 3 mps 721 mmHg 9%
    13:00 +44°C° 0 mm 3 mps 720 mmHg 8%
    14:00 +44°C° 0 mm 3 mps 719 mmHg 8%
    15:00 +42°C° 0 mm 2 mps 718 mmHg 8%
    16:00 +42°C° 0 mm 2 mps 718 mmHg 8%
    17:00 +39°C° 0 mm 2 mps 718 mmHg 11%
    18:00 +35°C° 0 mm 1 mps 718 mmHg 13%
    19:00 +32°C° 0 mm 1 mps 718 mmHg 15%
    20:00 +31°C° 0 mm 1 mps 719 mmHg 15%
    21:00 +31°C° 0 mm 1 mps 719 mmHg 16%
    22:00 +30°C° 0 mm 1 mps 720 mmHg 17%
    23:00 +29°C° 0 mm 1 mps 720 mmHg 18%

    Tomorrow, 24 January, Wednesday

    Time Temperature Precipitation Wind Pressure Humidity
    00:00 +28°C° 0 mm 1 mps 720 mmHg 19%
    01:00 +27°C° 0 mm 1 mps 720 mmHg 20%
    02:00 +27°C° 0 mm 1 mps 720 mmHg 20%
    03:00 +28°C° 0 mm 1 mps 720 mmHg 20%
    04:00 +28°C° 0 mm 1 mps 721 mmHg 20%
    05:00 +28°C° 0 mm 2 mps 721 mmHg 22%
    06:00 +28°C° 0 mm 2 mps 721 mmHg 25%
    07:00 +28°C° 0 mm 2 mps 722 mmHg 27%
    08:00 +31°C° 0 mm 2 mps 722 mmHg 23%
    09:00 +35°C° 0 mm 2 mps 722 mmHg 19%
    10:00 +38°C° 0 mm 2 mps 723 mmHg 15%
    11:00 +40°C° 0 mm 2 mps 722 mmHg 13%
    12:00 +41°C° 0 mm 2 mps 721 mmHg 11%
    13:00 +43°C° 0 mm 1 mps 720 mmHg 9%
    14:00 +43°C° 0 mm 1 mps 719 mmHg 9%
    15:00 +42°C° 0 mm 1 mps 719 mmHg 9%
    16:00 +42°C° 0 mm 1 mps 718 mmHg 9%
    17:00 +39°C° 0 mm 1 mps 718 mmHg 12%
    18:00 +35°C° 0 mm 1 mps 719 mmHg 14%
    19:00 +32°C° 0 mm 1 mps 719 mmHg 16%
    20:00 +31°C° 0 mm 1 mps 719 mmHg 19%
    21:00 +30°C° 0 mm 1 mps 720 mmHg 22%
    22:00 +29°C° 0 mm 2 mps 720 mmHg 25%
    23:00 +28°C° 0 mm 1 mps 720 mmHg 32%

    Day after tomorrow, 25 January, Thursday

    Time Temperature Precipitation Wind Pressure Humidity
    00:00 +28°C° 0 mm 1 mps 720 mmHg 39%
    01:00 +27°C° 0 mm 1 mps 720 mmHg 46%
    02:00 +27°C° 0 mm 1 mps 720 mmHg 51%
    03:00 +26°C° 0 mm 1 mps 720 mmHg 55%
    04:00 +26°C° 0 mm 1 mps 720 mmHg 60%
    05:00 +26°C° 0 mm 2 mps 720 mmHg 59%
    06:00 +27°C° 0 mm 2 mps 721 mmHg 57%
    07:00 +28°C° 0 mm 2 mps 722 mmHg 56%
    08:00 +30°C° 0 mm 2 mps 722 mmHg 49%
    09:00 +34°C° 0 mm 3 mps 723 mmHg 41%
    10:00 +37°C° 0 mm 3 mps 723 mmHg 33%
    11:00 +38°C° 0 mm 2 mps 722 mmHg 29%
    12:00 +40°C° 0 mm 2 mps 721 mmHg 25%
    13:00 +41°C° 0 mm 2 mps 720 mmHg 21%
    14:00 +40°C° 0 mm 2 mps 720 mmHg 22%
    15:00 +39°C° 0 mm 2 mps 719 mmHg 24%
    16:00 +38°C° 0 mm 2 mps 719 mmHg 25%
    17:00 +36°C° 0 mm 2 mps 719 mmHg 29%
    18:00 +34°C° 0 mm 2 mps 719 mmHg 33%
    19:00 +32°C° 0 mm 2 mps 720 mmHg 37%
    20:00 +31°C° 0 mm 2 mps 720 mmHg 40%
    21:00 +30°C° 0 mm 1 mps 721 mmHg 44%
    22:00 +29°C° 0 mm 1 mps 721 mmHg 48%
    23:00 +29°C° 0 mm 1 mps 720 mmHg 50%

    26 January, Friday

    Time Temperature Precipitation Wind Pressure Humidity
    00:00 +28°C° 0 mm 1 mps 720 mmHg 53%
    01:00 +27°C° 0 mm 1 mps 720 mmHg 56%
    02:00 +27°C° 0 mm 1 mps 719 mmHg 58%
    03:00 +26°C° 0 mm 1 mps 719 mmHg 60%
    04:00 +26°C° 0 mm 1 mps 719 mmHg 62%
    05:00 +26°C° 0 mm 1 mps 720 mmHg 60%
    06:00 +27°C° 0 mm 1 mps 721 mmHg 58%
    07:00 +28°C° 0 mm 1 mps 722 mmHg 56%
    08:00 +32°C° 0 mm 1 mps 722 mmHg 47%
    09:00 +35°C° 0 mm 1 mps 722 mmHg 38%
    10:00 +40°C° 0 mm 1 mps 723 mmHg 29%
    11:00 +40°C° 0 mm 1 mps 722 mmHg 28%
    12:00 +37°C° 0 mm 0 mps 721 mmHg 27%
    13:00 +37°C° 0 mm 0 mps 720 mmHg 26%
    14:00 +37°C° 0 mm 0 mps 719 mmHg 26%
    15:00 +39°C° 0 mm 1 mps 719 mmHg 26%
    16:00 +39°C° 0 mm 1 mps 719 mmHg 26%
    17:00 +36°C° 0 mm 1 mps 719 mmHg 30%
    18:00 +34°C° 0 mm 1 mps 719 mmHg 33%
    19:00 +33°C° 0 mm 1 mps 720 mmHg 36%
    20:00 +32°C° 0 mm 1 mps 720 mmHg 37%
    21:00 +32°C° 0 mm 1 mps 721 mmHg 39%
    22:00 +31°C° 0 mm 1 mps 721 mmHg 40%
    23:00 +29°C° 0 mm 0 mps 720 mmHg 41%

    27 January, Saturday

    Time Temperature Precipitation Wind Pressure Humidity
    00:00 +28°C° 0 mm 0 mps 720 mmHg 42%
    01:00 +28°C° 0 mm 0 mps 719 mmHg 43%
    02:00 +27°C° 0 mm 0 mps 719 mmHg 44%
    03:00 +27°C° 0 mm 0 mps 719 mmHg 45%
    04:00 +26°C° 0 mm 0 mps 719 mmHg 46%
    05:00 +29°C° 0 mm 1 mps 720 mmHg 46%
    06:00 +29°C° 0 mm 1 mps 721 mmHg 46%
    07:00 +29°C° 0 mm 1 mps 721 mmHg 46%
    08:00 +32°C° 0 mm 1 mps 722 mmHg 39%
    09:00 +36°C° 0 mm 1 mps 722 mmHg 32%
    10:00 +40°C° 0 mm 1 mps 723 mmHg 24%
    11:00 +41°C° 0 mm 1 mps 722 mmHg 22%
    12:00 +42°C° 0 mm 1 mps 721 mmHg 19%
    13:00 +43°C° 0 mm 2 mps 720 mmHg 16%
    14:00 +42°C° 0 mm 1 mps 719 mmHg 16%
    15:00 +42°C° 0 mm 1 mps 718 mmHg 16%
    16:00 +41°C° 0 mm 1 mps 718 mmHg 16%
    17:00 +39°C° 0 mm 1 mps 718 mmHg 19%
    18:00 +35°C° 0 mm 1 mps 718 mmHg 22%
    19:00 +32°C° 0 mm 1 mps 719 mmHg 25%
    20:00 +31°C° 0 mm 1 mps 719 mmHg 28%
    21:00 +30°C° 0 mm 1 mps 719 mmHg 31%
    22:00 +29°C° 0 mm 1 mps 719 mmHg 35%
    23:00 +29°C° 0 mm 1 mps 719 mmHg 37%

    28 January, Sunday

    Time Temperature Precipitation Wind Pressure Humidity
    00:00 +28°C° 0 mm 1 mps 719 mmHg 40%
    01:00 +26°C° 0 mm 0 mps 718 mmHg 42%
    02:00 +27°C° 0 mm 1 mps 719 mmHg 43%
    03:00 +27°C° 0 mm 1 mps 719 mmHg 45%
    04:00 +26°C° 0 mm 1 mps 719 mmHg 46%
    05:00 +27°C° 0 mm 1 mps 720 mmHg 42%
    06:00 +27°C° 0 mm 1 mps 720 mmHg 37%
    07:00 +28°C° 0 mm 1 mps 721 mmHg 33%
    08:00 +31°C° 0 mm 2 mps 721 mmHg 26%
    09:00 +36°C° 0 mm 2 mps 721 mmHg 18%
    10:00 +39°C° 0 mm 3 mps 722 mmHg 11%
    11:00 +41°C° 0 mm 2 mps 721 mmHg 10%
    12:00 +42°C° 0 mm 2 mps 720 mmHg 9%
    13:00 +43°C° 0 mm 2 mps 719 mmHg 9%
    14:00 +43°C° 0 mm 2 mps 718 mmHg 9%
    15:00 +42°C° 0 mm 2 mps 718 mmHg 9%
    16:00 +42°C° 0 mm 2 mps 717 mmHg 8%
    17:00 +39°C° 0 mm 2 mps 717 mmHg 10%
    18:00 +36°C° 0 mm 2 mps 718 mmHg 12%
    19:00 +33°C° 0 mm 1 mps 718 mmHg 14%
    20:00 +32°C° 0 mm 1 mps 718 mmHg 15%
    21:00 +31°C° 0 mm 1 mps 719 mmHg 16%
    22:00 +30°C° 0 mm 1 mps 719 mmHg 16%
    23:00 +30°C° 0 mm 1 mps 719 mmHg 18%
    Show more